Location: Newark
(58.8333°N, 23.5833°E)
Time: 04:32:13
(UTC+00:00)

METEOR M2 - Pass Details

Date: 17 December 2019
Orbit: 819 x 827 km, 98.5° (Epoch: 22 January)

Event Time Altitude Azimuth Distance (km) Brightness Sun altitude
Exits shadow 17:20:18 38° 3° (N) 1,251 ? -27.3°
Drops below altitude 10° 17:23:39 10° 347° (NNW) 2,431 ? -27.8°
Sets 17:26:01 0° 344° (NNW) 3,367 ? -28.1°
